Hourly Data Report for October 01, 2014

All times are specified in Local Standard Time (LST). Add 1 hour to adjust for Daylight Saving Time where and when it is observed.

PETAWAWA AWOS 2
ONTARIO

45°57'00.000" N
77°19'00.000" W
130.10 m
6106396
71625
YWA

Download Data

Hourly Data (October 2014)
Hourly Data Report for October 1, 2014
Temp Definition
°C
Dew Point Temp Definition
°C
Rel Hum Definition
%
Wind Dir Definition
10's deg

Wind Spd Definition
km/h
Visibility Definition
km
Stn Press Definition
kPa
Hmdx Definition


Wind Chill Definition


Weather Definition


TIME
00:00 12.9 9.3 79 12 4 14.5 100.35     LegendNANA
01:00 12.9 9.6 80 7 4 14.5 100.36     LegendNANA
02:00 13.0 9.6 80 11 4 14.5 100.37     LegendNANA
03:00 12.9 9.4 79 9 6 14.5 100.37     LegendNANA
04:00 12.9 9.5 80 5 6 14.5 100.40     LegendNANA
05:00 12.7 9.7 82 10 6 14.5 100.41     LegendNANA
06:00 12.6 9.9 84 9 4 14.5 100.44     LegendNANA
07:00 12.8 10.0 83 5 4 14.5 100.49     LegendNANA
08:00 13.2 10.1 82   0 14.5 100.54     LegendNANA
09:00 13.7 10.4 80   0 14.5 100.55     LegendNANA
10:00 13.9 10.5 80 12 6 14.5 100.55     LegendNANA
11:00 14.6 11.0 79 15 4 14.5 100.54     LegendNANA
12:00 15.3 11.0 76 12 6 14.5 100.50     LegendNANA
13:00 16.0 11.4 74 12 4 14.5 100.45     LegendNANA
14:00 16.6 11.5 72 11 6 14.5 100.43     LegendNANA
15:00 16.7 11.8 73 10 4 14.5 100.43     LegendNANA
16:00 16.8 11.7 72 13 4 14.5 100.43     LegendNANA
17:00 16.4 12.0 75 3 6 14.5 100.46     LegendNANA
18:00 15.7 12.6 82 8 4 14.5 100.45     LegendNANA
19:00 15.6 11.9 79 16 4 14.5 100.46     LegendNANA
20:00 15.4 11.7 79 11 4 14.5 100.47     LegendNANA
21:00 15.6 11.7 78 14 6 14.5 100.48     LegendNANA
22:00 14.8 11.5 81 13 7 14.5 100.47     LegendNANA
23:00 14.5 11.4 82 13 7 14.5 100.47     LegendNANA

Notes on Data Quality.

Legend

  • E = Estimated
  • M = Missing
  • NA = Not Available
  • ‡ = Partner data that is not subject to review by the National Climate Archives
Date modified: